FW0663 Weather Reports


Display with metric or nautical units.
time (UTC)temp
F
wind
direction
speed
MPH
gust
MPH
rain 1hr
in
rain 24hr
in
rain mn
in
humidity
%
barometer
mb
20260901150021 49 147 0.0 0.0 0.00 0.00 0.00 63 1009.9
20260901144512 48 105 0.0 0.0 0.00 0.00 0.00 67 1009.8
20260901143011 48 116 0.0 1.0 0.00 0.00 0.00 68 1009.6
20260901141509 48 113 0.0 0.0 0.00 0.00 0.00 64 1009.4
20260901140008 48 127 0.0 2.0 0.00 0.00 0.00 64 1009.1
20260901134507 47 103 0.0 2.0 0.00 0.00 0.00 66 1009.1
20260901133007 47 123 0.0 2.0 0.00 0.00 0.00 66 1008.9
20260901131510 47 110 0.0 1.0 0.00 0.00 0.00 66 1008.9
20260901130005 47 98 0.0 2.0 0.00 0.00 0.00 65 1009.1
20260901124505 47 105 0.0 2.0 0.00 0.00 0.00 67 1009.1
20260901123005 48 115 1.0 3.0 0.00 0.00 0.00 66 1009.1
20260901121508 49 106 0.0 2.0 0.00 0.00 0.00 63 1009.2
20260901120007 48 109 0.0 1.0 0.00 0.00 0.00 63 1009.3
20260901114501 49 103 0.0 2.0 0.00 0.00 0.00 65 1009.1
20260901113003 49 108 1.0 2.0 0.00 0.00 0.00 65 1009.1
20260901111600 48 106 1.0 2.0 0.00 0.00 0.00 66 1009.2
20260901110100 47 105 0.0 3.0 0.00 0.00 0.00 69 1009.1
20260901104602 49 100 0.0 3.0 0.00 0.00 0.00 65 1009.1
20260901103055 50 112 0.0 2.0 0.00 0.00 0.00 62 1009.2
20260901101605 50 123 0.0 2.0 0.00 0.00 0.00 64 1009.1
20260901100058 49 107 0.0 2.0 0.00 0.00 0.00 68 1009.1
20260901094555 50 98 0.0 2.0 0.00 0.00 0.00 65 1009.2
20260901093054 50 84 0.0 3.0 0.00 0.00 0.00 63 1009.2
20260901091557 51 83 1.0 2.0 0.00 0.00 0.00 63 1009.2
20260901090051 50 104 1.0 2.0 0.00 0.00 0.00 64 1009.1
20260901084551 50 95 0.0 2.0 0.00 0.00 0.00 66 1009.1
20260901083047 51 108 0.0 2.0 0.00 0.00 0.00 66 1009.2
20260901081550 51 94 0.0 2.0 0.00 0.00 0.00 64 1009.1
20260901080137 51 94 1.0 3.0 0.00 0.00 0.00 65 1009.1
20260901074539 52 87 0.0 0.0 0.00 0.00 0.00 64 1008.9
20260901073035 54 102 0.0 1.0 0.00 0.00 0.00 59 1009.0
20260901071535 56 104 0.0 2.0 0.00 0.00 0.00 55 1009.0
20260901070034 60 126 0.0 0.0 0.00 0.00 0.00 45 1009.0
20260901064528 62 324 0.0 2.0 0.00 0.00 0.00 42 1009.0
20260901063045 63 321 1.0 3.0 0.00 0.00 0.00 39 1009.1
20260901061527 63 328 1.0 4.0 0.00 0.00 0.00 39 1009.2
20260901060027 63 289 2.0 3.0 0.00 0.00 0.00 40 1009.2
20260901054530 64 259 0.0 2.0 0.00 0.00 0.00 39 1009.1
20260901053032 65 273 0.0 2.0 0.00 0.00 0.00 37 1009.1
20260901051526 65 286 0.0 2.0 0.00 0.00 0.00 38 1008.9
20260901050026 66 355 0.0 2.0 0.00 0.00 0.00 38 1009.0
20260901044525 67 273 0.0 1.0 0.00 0.00 0.00 36 1009.0
20260901043032 67 338 0.0 1.0 0.00 0.00 0.00 36 1009.0
20260901041524 69 246 0.0 0.0 0.00 0.00 0.00 34 1008.7
20260901040024 70 184 0.0 2.0 0.00 0.00 0.00 33 1008.6
20260901034524 74 225 0.0 5.0 0.00 0.00 0.00 29 1008.3
20260901033023 74 292 1.0 6.0 0.00 0.00 0.00 28 1007.9
20260901031524 74 323 3.0 12.0 0.00 0.00 0.00 27 1007.8
20260901030022 74 321 3.0 10.0 0.00 0.00 0.00 27 1007.6
20260901024521 74 279 2.0 6.0 0.00 0.00 0.00 29 1007.2
20260901023020 75 240 1.0 3.0 0.00 0.00 0.00 31 1006.9
20260901021526 77 263 0.0 2.0 0.00 0.00 0.00 28 1006.8
20260901020020 79 275 0.0 2.0 0.00 0.00 0.00 27 1006.6
20260901014519 81 242 1.0 7.0 0.00 0.00 0.00 25 1006.6
20260901013019 82 338 3.0 10.0 0.00 0.00 0.00 19 1006.6
20260901011525 84 321 3.0 11.0 0.00 0.00 0.00 18 1006.6
20260901010017 85 331 5.0 13.0 0.00 0.00 0.00 18 1006.7
20260901004514 86 14 5.0 11.0 0.00 0.00 0.00 18 1006.9
20260901003012 86 308 4.0 9.0 0.00 0.00 0.00 18 1007.1
20260901001510 86 323 5.0 9.0 0.00 0.00 0.00 16 1007.1
20260901000013 87 311 5.0 8.0 0.00 0.00 0.00 16 1007.3
20260831234509 87 328 4.0 8.0 0.00 0.00 0.00 16 1007.6
20260831233004 87 23 4.0 9.0 0.00 0.00 0.00 16 1007.7
20260831231510 87 311 5.0 11.0 0.00 0.00 0.00 17 1008.0
20260831230003 87 270 5.0 11.0 0.00 0.00 0.00 17 1008.0
20260831224501 87 323 3.0 8.0 0.00 0.00 0.00 17 1008.1
20260831223059 87 287 3.0 7.0 0.00 0.00 0.00 17 1008.3
20260831221605 87 273 4.0 8.0 0.00 0.00 0.00 18 1008.5
20260831220055 86 279 3.0 9.0 0.00 0.00 0.00 17 1008.7
20260831214550 85 252 3.0 7.0 0.00 0.00 0.00 17 1009.0
20260831213047 85 321 3.0 8.0 0.00 0.00 0.00 17 1009.3
20260831211603 84 5 3.0 8.0 0.00 0.00 0.00 17 1009.6
20260831210040 83 285 3.0 8.0 0.00 0.00 0.00 17 1009.9
20260831204538 82 271 2.0 10.0 0.00 0.00 0.00 19 1010.2
20260831203039 81 240 1.0 5.0 0.00 0.00 0.00 19 1010.7
20260831201533 81 279 2.0 7.0 0.00 0.00 0.00 19 1011.0
20260831200027 80 281 3.0 8.0 0.00 0.00 0.00 20 1011.3
20260831194523 79 251 1.0 6.0 0.00 0.00 0.00 21 1011.8
20260831193019 78 42 0.0 3.0 0.00 0.00 0.00 23 1012.0
20260831191534 76 328 1.0 5.0 0.00 0.00 0.00 22 1012.4
20260831190013 75 341 2.0 8.0 0.00 0.00 0.00 23 1012.6
20260831184509 73 43 1.0 5.0 0.00 0.00 0.00 26 1013.0
20260831183004 72 286 1.0 5.0 0.00 0.00 0.00 24 1013.3
20260831181501 70 252 1.0 4.0 0.00 0.00 0.00 27 1013.6
20260831180058 69 60 1.0 4.0 0.00 0.00 0.00 27 1013.9
20260831174553 67 345 2.0 5.0 0.00 0.00 0.00 32 1014.2
20260831173049 65 277 2.0 5.0 0.00 0.00 0.00 30 1014.3
20260831171545 63 240 0.0 4.0 0.00 0.00 0.00 36 1014.6
20260831170042 62 242 0.0 2.0 0.00 0.00 0.00 38 1014.8
20260831164537 61 317 0.0 3.0 0.00 0.00 0.00 34 1015.0
20260831163035 60 296 0.0 2.0 0.00 0.00 0.00 36 1015.1
20260831161533 58 153 0.0 2.0 0.00 0.00 0.00 40 1015.4
20260831160030 56 82 0.0 4.0 0.00 0.00 0.00 46 1015.6
20260831154538 54 74 0.0 3.0 0.00 0.00 0.00 48 1015.8
20260831153024 52 84 0.0 4.0 0.00 0.00 0.00 48 1015.9
20260831151525 50 76 0.0 3.0 0.00 0.00 0.00 54 1016.1